This demonstration page uses our WeatherBlox Daily Observations layout. Learn more.

Left ArrowRight Arrow

Hourly Observations for April 21, 2020

Temp ( °F °C ) Dew Point ( °F °C ) Humidity (%) Winds ( mph kmh ) Pressure ( in mb ) Visibility ( mi km ) Precip ( " mm )
12:52 am 00:52 Clear 49 9.4 35 1.7 59 59 Calm 29.87 1012 10 16 0.00 0.00
1:52 am 01:52 Clear 45 7.2 33 0.6 63 63 N 9 15 29.91 1013 10 16 0.00 0.00
2:52 am 02:52 Clear 44 6.7 32 0 63 63 N 9 15 29.92 1013 10 16 0.00 0.00
3:52 am 03:52 Clear 41 5 32 0 70 70 N 5 7 29.96 1014 10 16 0.00 0.00
4:52 am 04:52 Clear 41 5 32 0 70 70 NNW 3 6 29.97 1015 10 16 0.00 0.00
5:52 am 05:52 Clear 40 4.4 32 0 73 73 NW 3 6 29.99 1016 10 16 0.00 0.00
6:52 am 06:52 Sunny 37 2.8 33 0.6 86 86 NNE 3 6 30.01 1016 10 16 0.00 0.00
7:52 am 07:52 Sunny 44 6.7 33 0.6 65 65 Calm 30.04 1017 10 16 0.00 0.00
8:52 am 08:52 Sunny 48 8.9 34 1.1 58 58 Calm 30.05 1018 10 16 0.00 0.00
9:52 am 09:52 Sunny 52 11.1 33 0.6 49 49 S 5 7 30.06 1018 10 16 0.00 0.00
10:52 am 10:52 Sunny 56 13.3 26 -3.3 32 32 NNE 5 7 30.06 1018 10 16 0.00 0.00
11:52 am 11:52 Sunny 59 15 30 -1.1 33 33 SSW 5 7 30.05 1018 10 16 0.00 0.00
12:52 pm 12:52 Sunny 61 16.1 31 -0.6 32 32 VRB 3 6 30.04 1017 10 16 0.00 0.00
1:52 pm 13:52 Sunny 65 18.3 33 0.6 31 31 VRB 7 11 30.01 1016 10 16 0.00 0.00
2:52 pm 14:52 Sunny 68 20 34 1.1 28 28 SSW 10 17 29.98 1015 10 16 0.00 0.00
3:52 pm 15:52 Mostly Sunny 70 21.1 33 0.6 26 26 SW 10 17 29.95 1014 10 16 0.00 0.00
4:52 pm 16:52 Mostly Sunny 72 22.2 32 0 23 23 WSW 8 13 29.93 1014 10 16 0.00 0.00
5:52 pm 17:52 Partly Cloudy 72 22.2 32 0 23 23 SSW 10 17 29.91 1013 10 16 0.00 0.00
6:52 pm 18:52 Mostly Cloudy 71 21.7 33 0.6 25 25 S 8 13 29.90 1013 10 16 0.00 0.00
7:52 pm 19:52 Partly Cloudy 66 18.9 35 1.7 32 32 SSE 10 17 29.88 1012 10 16 0.00 0.00
8:52 pm 20:52 Partly Cloudy 58 14.4 37 2.8 46 46 SE 9 15 29.88 1012 10 16 0.00 0.00
9:52 pm 21:52 Mostly Clear 61 16.1 36 2.2 39 39 SSE 10 17 29.88 1012 10 16 0.00 0.00
10:52 pm 22:52 Partly Cloudy 60 15.6 36 2.2 41 41 SSE 10 17 29.87 1011 10 16 0.00 0.00
11:52 pm 23:52 Partly Cloudy 60 15.6 38 3.3 44 44 SSE 14 22 29.85 1011 10 16 0.00 0.00

Powered by AerisWeather